Date,TemperatureHighF,TemperatureAvgF,TemperatureLowF,DewpointHighF,DewpointAvgF,DewpointLowF,HumidityHigh,HumidityAvg,HumidityLow,PressureMaxIn,PressureMinIn,WindSpeedMaxMPH,WindSpeedAvgMPH,GustSpeedMaxMPH,PrecipitationSumIn
2013-1-1,50,46,38,45,36,27,96,71,40,30.09,29.88,18,2,18,0.00
2013-1-2,62,46,35,41,31,22,100,64,29,30.36,30.09,14,2,14,0.00
2013-1-3,65,48,35,27,24,21,68,42,20,30.62,30.36,10,3,10,0.00
2013-1-4,66,49,38,36,29,23,61,46,31,30.59,30.42,8,4,8,0.00
2013-1-5,71,52,40,36,33,29,77,50,24,30.42,30.21,10,3,10,0.00
2013-1-6,72,52,44,44,34,25,90,52,24,30.27,30.18,10,3,10,0.00
2013-1-7,73,51,39,44,36,28,93,59,27,30.24,30.12,8,3,8,0.00
2013-1-8,64,46,34,46,39,32,97,79,38,30.27,30.21,6,1,6,0.00
2013-1-9,51,46,40,47,43,40,100,90,68,30.24,30.06,5,1,5,0.00
2013-1-10,65,48,39,43,38,32,97,72,34,30.09,30.00,8,1,8,0.00
2013-1-11,65,45,33,37,32,28,96,68,26,30.15,30.06,8,1,8,0.00
2013-1-12,63,44,34,36,33,29,96,68,30,30.09,29.85,7,1,7,0.00
2013-1-13,52,44,38,44,38,31,100,82,47,29.88,29.71,10,2,10,0.08
2013-1-14,58,42,35,40,34,27,100,76,37,29.94,29.85,8,1,8,0.00
2013-1-15,55,40,32,34,27,18,93,63,28,29.94,29.74,23,2,23,0.00
2013-1-16,55,40,30,34,26,19,80,60,38,29.85,29.53,9,2,9,0.00
2013-1-17,56,42,32,35,27,17,95,61,26,29.83,29.65,10,2,10,0.00
2013-1-18,54,40,29,44,31,23,83,70,46,29.80,29.38,8,1,8,0.00
2013-1-19,58,50,40,54,44,38,92,81,59,29.40,28.97,19,4,19,0.04
2013-1-20,60,48,39,46,37,26,96,69,30,29.50,29.03,10,3,10,0.00
2013-1-21,57,44,36,42,36,33,96,77,45,29.80,29.44,10,2,10,0.04
2013-1-22,57,44,34,37,27,19,100,55,26,29.77,29.50,23,5,23,0.00
2013-1-23,50,44,32,33,28,22,91,56,37,29.74,29.47,10,2,10,0.00
2013-1-24,58,41,32,34,31,26,94,70,34,29.74,29.56,9,2,9,0.00
2013-1-25,64,44,32,33,24,15,89,53,16,29.85,29.71,9,3,9,0.00
2013-1-26,59,43,31,40,32,22,86,67,37,30.03,29.71,13,3,13,0.00
2013-1-27,56,45,34,41,37,32,100,76,47,30.03,29.74,6,1,6,0.00
2013-1-28,65,51,40,47,39,30,100,70,29,30.27,29.80,14,2,14,0.08
2013-1-29,67,49,37,43,37,30,95,69,30,30.30,30.24,8,2,8,0.00
2013-1-30,72,50,36,41,33,24,83,56,19,30.30,30.15,9,2,9,0.00
2013-1-31,69,51,37,44,38,35,94,66,33,30.36,30.24,9,2,9,0.00
2013-2-1,71,51,41,45,41,35,96,73,29,30.27,29.62,12,2,12,0.00
2013-2-2,58,48,42,46,31,15,97,56,27,29.85,29.50,24,4,24,0.13
2013-2-3,58,47,38,15,10,2,32,23,16,30.24,29.83,26,8,26,0.00
2013-2-4,64,43,27,28,19,8,65,40,23,30.27,30.18,10,2,10,0.00
2013-2-5,66,47,32,44,33,26,93,63,33,30.21,29.83,10,2,10,0.00
2013-2-6,57,43,33,35,28,22,95,59,27,29.85,29.65,10,2,10,0.00
2013-2-7,52,41,32,28,16,11,78,38,23,30.00,29.77,15,4,15,0.00
2013-2-8,48,38,32,27,19,13,58,47,37,30.00,29.85,20,2,20,0.00
2013-2-9,56,42,30,23,17,12,60,39,20,30.09,29.99,13,3,13,0.00
2013-2-10,56,45,35,31,26,23,67,48,34,30.03,29.53,18,4,18,0.00
2013-2-11,54,46,39,35,29,23,83,55,36,29.59,29.47,10,2,12,0.00
2013-2-12,63,45,33,35,24,14,90,49,18,29.91,29.53,12,3,12,0.00
2013-2-13,64,42,28,28,25,20,85,56,24,30.12,29.91,10,1,10,0.00
2013-2-14,64,47,32,41,32,26,84,59,29,30.15,30.06,9,3,9,0.00
2013-2-15,61,48,35,41,32,27,95,60,33,30.18,30.03,13,2,13,0.00
2013-2-16,55,48,42,35,31,26,74,52,35,30.18,30.09,8,2,8,0.00
2013-2-17,51,48,47,42,34,31,77,60,54,30.09,29.91,8,1,8,0.00
2013-2-18,54,48,46,48,45,39,97,88,60,30.03,29.85,9,1,9,0.08
2013-2-19,56,48,40,48,39,32,100,75,43,30.03,29.91,13,3,13,0.00
2013-2-20,63,46,32,40,35,29,100,69,33,29.94,29.80,9,2,9,0.00
2013-2-21,56,44,33,45,36,32,97,75,46,29.85,29.68,10,2,10,0.12
2013-2-22,46,39,37,46,36,33,100,90,78,29.68,29.59,9,2,9,0.16
2013-2-23,47,37,27,37,15,5,97,43,27,29.83,29.47,15,4,15,0.00
2013-2-24,43,32,21,19,14,10,83,51,29,29.97,29.80,7,1,7,0.00
2013-2-25,50,36,28,23,18,12,74,53,24,30.12,29.94,14,2,14,0.00
2013-2-26,55,37,25,24,21,15,89,58,22,30.18,30.09,10,2,10,0.00
2013-2-27,54,41,31,34,26,20,76,56,35,30.18,30.12,14,2,14,0.00
2013-2-28,48,43,35,43,38,34,100,84,65,30.15,30.00,14,3,14,0.24
2013-3-1,47,44,42,43,37,26,96,78,44,30.00,29.88,20,5,20,0.98
2013-3-2,65,49,37,39,33,23,93,58,25,30.09,29.94,14,3,14,0.00
2013-3-3,64,46,32,40,33,25,100,65,28,30.06,29.91,10,2,10,0.00
2013-3-4,59,47,33,50,40,31,97,78,44,29.97,29.83,9,3,9,0.04
2013-3-5,54,53,50,52,50,47,100,91,81,29.83,29.47,16,8,16,1.52
2013-3-6,56,53,51,53,51,46,100,94,74,29.50,29.32,20,6,20,0.80
2013-3-7,66,55,48,52,47,41,100,78,48,29.65,29.47,15,3,15,0.04
2013-3-8,67,57,50,48,43,37,83,61,36,29.71,29.41,15,4,15,0.00
2013-3-9,70,56,46,48,43,32,97,67,25,29.65,29.56,12,3,12,0.00
2013-3-10,69,54,44,44,40,31,95,66,27,29.65,29.47,10,2,10,0.00
2013-3-11,66,52,44,40,35,26,79,54,23,29.59,29.47,14,3,14,0.00
2013-3-12,60,48,40,45,39,31,100,75,37,29.59,29.47,15,3,15,0.17
2013-3-13,46,39,33,41,30,16,100,75,40,29.59,29.38,9,2,9,0.16
2013-3-14,55,41,29,27,19,10,85,46,17,29.80,29.56,16,4,16,0.00
2013-3-15,59,43,29,30,18,11,76,41,17,30.06,29.77,12,3,12,0.00
2013-3-16,59,45,31,44,34,28,88,68,32,30.06,29.80,20,6,20,0.04
2013-3-17,60,53,49,47,40,30,91,63,35,29.80,29.44,15,6,15,0.00
2013-3-18,64,49,38,48,40,24,100,74,23,29.74,29.38,15,3,15,0.08
2013-3-19,60,47,36,42,36,30,97,70,34,29.77,29.56,12,3,12,0.00
2013-3-20,65,52,46,50,42,31,100,74,32,30.03,29.56,12,2,12,0.12
2013-3-21,66,53,39,46,38,31,100,65,31,30.06,29.85,14,3,14,0.00
2013-3-22,68,54,42,47,40,31,96,65,29,29.88,29.59,22,6,22,0.00
2013-3-23,63,53,46,51,45,40,96,78,43,29.71,29.56,9,2,9,0.00
2013-3-24,58,52,45,50,45,41,100,82,54,29.62,29.50,15,2,15,0.00
2013-3-25,69,53,41,46,40,30,100,68,24,29.65,29.56,14,3,14,0.00
2013-3-26,64,53,44,50,41,33,97,66,33,29.65,29.53,10,2,10,0.00
2013-3-27,53,50,50,51,49,46,100,95,85,29.71,29.53,6,1,6,0.04
2013-3-28,67,56,50,55,50,43,98,85,45,29.83,29.59,10,2,10,0.16
2013-3-29,69,59,51,53,47,38,98,69,35,29.83,29.53,15,4,15,0.00
2013-3-30,67,56,46,50,46,40,95,70,45,29.77,29.47,14,3,14,0.17
2013-3-31,64,51,39,46,41,35,98,72,35,29.80,29.62,10,3,10,0.00
2013-4-1,51,48,46,50,46,40,98,93,72,29.62,29.38,10,2,10,0.35
2013-4-2,65,50,41,52,43,33,98,81,33,29.77,29.56,10,2,10,0.04
2013-4-3,62,50,37,48,42,37,98,76,45,29.77,29.62,15,3,15,0.04
2013-4-4,59,51,48,52,47,42,98,87,68,29.62,29.47,13,3,13,0.17
2013-4-5,48,46,43,48,42,33,98,86,58,29.80,29.56,5,1,5,0.16
2013-4-6,58,46,41,44,38,25,98,78,30,29.91,29.74,10,2,10,0.04
2013-4-7,58,50,36,45,36,30,98,65,36,29.97,29.83,9,2,9,0.00
2013-4-8,64,48,41,47,42,32,98,81,34,29.85,29.74,10,2,10,0.00
2013-4-9,70,55,41,45,38,29,98,57,24,29.94,29.68,22,7,22,0.00
2013-4-10,67,57,46,49,42,34,91,61,33,30.00,29.88,15,5,15,0.00
2013-4-11,76,66,53,50,42,36,85,43,25,29.94,29.65,18,8,18,0.00
2013-4-12,75,60,50,51,44,31,98,63,21,30.03,29.83,13,4,13,0.00
2013-4-13,73,57,43,50,42,33,98,65,25,30.21,30.03,15,3,15,0.00
2013-4-14,75,60,46,48,38,23,97,53,15,30.27,30.18,26,7,26,0.00
2013-4-15,74,61,49,43,36,31,73,43,22,30.24,30.09,17,5,17,0.00
2013-4-16,80,63,46,48,44,34,96,56,21,30.18,30.12,9,2,9,0.00
2013-4-17,81,66,51,50,42,29,90,48,19,30.18,30.09,15,3,15,0.00
2013-4-18,75,62,48,50,45,38,90,58,32,30.18,30.09,13,3,13,0.00
2013-4-19,65,53,46,52,44,31,98,76,38,30.21,30.09,13,2,13,0.21
2013-4-20,70,52,37,45,33,16,98,58,14,30.18,30.03,15,3,15,0.00
2013-4-21,68,54,40,45,38,26,98,60,23,30.12,30.00,13,4,13,0.00
2013-4-22,69,57,47,47,37,23,96,54,20,30.09,29.97,14,4,14,0.00
2013-4-23,72,55,39,42,36,28,96,56,22,30.24,30.06,14,3,14,0.00
2013-4-24,67,56,44,44,40,31,90,58,27,30.30,30.24,14,4,14,0.00
2013-4-25,63,57,51,56,48,41,98,75,50,30.27,30.12,8,2,8,0.37
2013-4-26,69,60,55,55,51,43,98,77,40,30.12,29.83,15,3,15,0.04
2013-4-27,56,50,45,55,47,39,98,92,67,29.83,29.68,8,2,8,0.95
2013-4-28,48,46,44,47,38,30,98,77,50,29.91,29.77,18,4,18,0.08
2013-4-29,53,49,45,51,47,41,98,92,81,29.91,29.80,8,2,8,0.28
2013-4-30,70,58,52,57,48,38,98,74,33,29.94,29.80,13,3,13,0.04
2013-5-1,72,58,46,49,39,26,96,57,22,30.00,29.94,14,5,14,0.00
2013-5-2,72,57,44,48,43,34,98,64,28,30.03,29.94,10,3,10,0.00
2013-5-3,72,58,43,47,41,32,98,61,25,30.09,30.00,12,3,12,0.00
2013-5-4,73,59,47,50,43,33,97,60,25,30.12,30.03,10,3,10,0.00
2013-5-5,76,61,48,47,41,31,84,52,21,30.12,30.03,13,4,13,0.00
2013-5-6,80,64,48,50,42,32,90,52,19,30.09,29.97,13,4,13,0.00
2013-5-7,79,67,57,54,45,34,85,52,21,30.03,29.97,10,3,10,0.00
2013-5-8,83,68,57,61,48,34,97,56,23,30.03,29.91,10,2,10,0.00
2013-5-9,78,67,59,61,54,46,98,67,36,30.03,29.88,13,3,13,0.00
2013-5-10,65,59,56,60,47,39,97,67,40,30.12,29.97,9,2,9,0.04
2013-5-11,70,59,52,50,44,36,87,60,35,30.15,30.06,12,3,12,0.00
2013-5-12,72,60,53,51,45,38,88,59,32,30.18,30.09,10,3,10,0.00
2013-5-13,76,62,51,52,46,39,89,59,33,30.18,30.03,10,3,10,0.00
2013-5-14,72,60,50,57,51,46,98,75,43,30.06,29.71,15,4,15,0.00
2013-5-15,65,56,51,56,52,49,98,87,67,29.74,29.56,17,3,17,0.21
2013-5-16,58,51,46,51,47,44,98,89,61,29.59,29.47,7,2,7,0.57
2013-5-17,67,56,45,55,42,34,98,67,33,29.65,29.53,17,5,17,0.00
2013-5-18,68,58,51,54,42,29,98,60,24,29.74,29.53,18,7,18,0.38
2013-5-19,64,54,46,50,44,34,98,71,41,30.06,29.74,15,3,15,0.75
2013-5-20,64,54,48,54,48,38,98,84,41,30.09,30.03,9,1,9,0.13
2013-5-21,70,57,44,50,43,37,98,66,32,30.09,29.88,13,2,13,0.00
2013-5-22,77,63,48,50,43,34,97,53,24,29.94,29.77,18,4,18,0.00
2013-5-23,72,59,46,51,42,31,91,57,24,29.91,29.83,14,4,14,0.04
2013-5-24,62,54,49,52,42,30,98,68,34,30.00,29.88,11,3,11,0.08
2013-5-25,61,52,47,50,45,35,98,80,40,30.12,29.91,10,2,10,0.17
2013-5-26,67,55,42,51,44,33,98,71,34,30.12,29.97,14,3,14,0.00
2013-5-27,71,59,49,52,47,40,98,69,36,29.97,29.80,21,3,21,0.00
2013-5-28,73,55,49,53,48,40,98,82,33,29.85,29.68,15,3,15,0.12
2013-5-29,60,52,47,56,47,38,98,84,46,29.85,29.74,14,2,14,0.57
2013-5-30,68,55,40,53,43,34,98,70,29,29.88,29.85,13,3,13,0.00
2013-5-31,75,60,52,54,48,35,98,71,25,29.94,29.80,12,2,12,0.00
2013-6-1,83,67,55,52,40,26,85,45,14,30.03,29.88,18,5,18,0.00
2013-6-2,80,65,49,46,40,34,84,46,20,30.06,29.97,13,4,13,0.00
2013-6-3,79,63,48,49,44,36,95,54,23,30.06,29.97,14,4,14,0.00
2013-6-4,75,64,56,58,48,38,93,59,27,30.06,29.97,13,3,13,0.00
2013-6-5,78,65,53,56,47,38,98,58,26,30.00,29.91,16,5,16,0.00
2013-6-6,79,66,51,53,43,34,93,49,22,30.03,29.97,16,5,16,0.00
2013-6-7,82,68,53,54,46,34,94,51,20,30.03,29.94,18,5,18,0.00
2013-6-8,73,62,55,62,51,40,98,70,41,30.00,29.83,24,4,24,0.88
2013-6-9,72,62,54,56,49,40,98,67,33,29.88,29.74,15,5,15,0.37
2013-6-10,78,64,51,56,50,43,98,67,31,30.03,29.88,13,3,13,0.00
2013-6-11,83,69,53,58,52,46,98,61,29,30.09,30.00,10,3,10,0.00
2013-6-12,88,73,59,60,53,46,97,56,26,30.15,30.06,12,3,12,0.00
2013-6-13,90,75,61,60,54,39,92,54,18,30.15,30.00,14,4,14,0.00
2013-6-14,84,72,59,61,54,47,93,59,31,30.15,29.94,18,5,18,0.00
2013-6-15,84,72,60,62,56,50,95,62,35,30.09,30.03,13,4,13,0.00
2013-6-16,87,73,60,60,48,34,94,50,19,30.09,29.94,21,5,21,0.00
2013-6-17,84,70,56,63,56,49,89,64,40,29.97,29.85,14,3,14,0.00
2013-6-18,74,69,66,65,62,57,92,79,57,29.91,29.83,10,3,10,0.00
2013-6-19,83,72,64,68,52,34,98,59,21,29.97,29.83,15,4,15,0.00
2013-6-20,78,66,56,58,51,40,92,63,27,30.12,29.97,14,4,14,0.00
2013-6-21,80,65,54,62,55,45,98,73,32,30.18,30.06,13,3,13,0.12
2013-6-22,78,67,55,61,56,48,98,73,41,30.18,30.09,10,2,10,0.04
2013-6-23,76,65,57,61,54,44,98,73,41,30.21,30.12,15,2,15,0.00
2013-6-24,78,65,52,58,44,35,97,50,25,30.24,30.18,10,3,10,0.00
2013-6-25,79,68,58,46,40,36,61,37,22,30.24,29.83,13,3,13,0.40
2013-6-26,83,68,53,52,44,30,89,47,16,30.24,30.18,14,3,14,0.00
2013-6-27,82,68,54,58,50,39,94,58,24,30.24,30.15,13,3,13,0.00
2013-6-28,81,68,56,59,52,42,95,62,29,30.24,30.15,12,3,12,0.00
2013-6-29,85,71,58,59,54,42,94,60,24,30.27,30.18,10,3,10,0.00
2013-6-30,86,71,59,61,55,47,97,61,28,30.24,30.09,13,3,13,0.00
2013-7-1,82,71,58,62,53,45,96,59,28,30.12,30.03,12,4,12,0.00
2013-7-2,84,70,59,61,54,40,98,62,22,30.12,30.00,14,5,14,0.00
2013-7-3,85,72,64,63,59,54,94,67,37,30.15,30.03,10,3,10,0.00
2013-7-4,87,75,64,64,57,50,95,57,29,30.21,30.12,12,4,12,0.00
2013-7-5,86,74,60,63,52,42,95,53,23,30.24,30.18,13,4,13,0.00
2013-7-6,94,78,59,58,51,43,88,46,18,30.24,30.15,12,3,12,0.00
2013-7-7,95,81,32,60,54,7,81,43,19,30.21,30.15,14,3,14,0.00
2013-7-8,91,79,64,62,53,41,88,46,19,30.21,30.15,13,3,13,0.00
2013-7-9,94,78,62,57,51,43,82,44,18,30.21,30.03,14,4,14,0.00
2013-7-10,90,77,64,63,57,48,83,53,26,30.06,29.91,13,3,13,0.00
2013-7-11,88,75,66,66,60,51,89,62,30,29.97,29.94,13,3,13,0.00
2013-7-12,93,80,65,65,56,41,89,50,19,30.06,29.97,14,4,14,0.00
2013-7-13,90,79,68,65,60,50,84,55,29,30.06,30.00,9,3,9,0.00
2013-7-14,91,78,69,68,57,43,84,54,20,30.15,30.03,13,3,13,0.00
2013-7-15,95,79,64,59,53,45,79,46,18,30.18,30.09,10,3,10,0.00
2013-7-16,91,79,68,63,57,46,77,50,23,30.18,30.09,20,4,20,0.00
2013-7-17,91,76,66,70,59,50,92,61,27,30.18,30.09,14,2,14,0.00
2013-7-18,92,75,68,70,61,43,96,68,19,30.18,30.06,15,3,15,0.00
2013-7-19,87,72,64,67,62,54,98,75,35,30.12,30.00,28,4,28,0.75
2013-7-20,86,72,63,69,65,60,98,81,49,30.06,29.97,12,3,12,0.04
2013-7-21,89,76,63,67,60,50,98,64,31,30.09,30.03,10,2,10,0.00
2013-7-22,92,78,64,65,58,46,96,56,22,30.09,29.97,10,3,10,0.00
2013-7-23,94,78,68,69,62,52,93,64,27,30.03,29.94,13,4,13,0.08
2013-7-24,94,80,66,65,56,41,95,52,18,30.06,29.97,13,4,13,0.00
2013-7-25,98,83,70,65,57,44,82,47,20,30.06,29.94,16,6,16,0.00
2013-7-26,98,84,70,68,55,38,86,45,14,30.00,29.94,15,5,15,0.00
2013-7-27,96,82,68,68,63,58,84,56,32,29.97,29.80,13,4,13,0.00
2013-7-28,96,83,72,74,62,48,93,56,26,30.00,29.83,15,4,15,0.00
2013-7-29,88,76,66,65,57,49,97,54,28,30.30,30.00,15,3,15,0.17
2013-7-30,92,78,65,64,58,46,92,56,22,30.30,30.15,13,3,13,0.00
2013-7-31,93,79,66,67,58,47,91,55,21,30.21,30.03,13,3,13,0.00
2013-8-1,95,81,68,68,55,41,92,48,17,30.09,30.00,20,7,20,0.00
2013-8-2,94,82,68,60,51,40,70,39,17,30.09,30.00,23,8,23,0.00
2013-8-3,90,79,68,70,62,56,82,56,37,30.18,30.06,15,5,15,0.00
2013-8-4,95,81,67,69,61,53,96,56,27,30.18,30.06,14,3,14,0.00
2013-8-5,94,82,68,69,54,42,90,47,17,30.12,29.97,18,5,18,0.00
2013-8-6,96,81,69,72,62,48,91,56,21,30.09,29.88,12,3,12,0.00
2013-8-7,88,77,71,73,66,56,97,73,34,29.97,29.85,12,3,12,0.00
2013-8-8,86,72,62,68,56,40,98,62,22,30.18,29.94,13,4,13,0.29
2013-8-9,91,75,59,62,52,39,94,52,18,30.21,30.12,13,4,13,0.00
2013-8-10,92,76,60,65,54,42,92,53,18,30.21,30.09,12,3,12,0.00
2013-8-11,96,79,63,65,54,38,95,51,14,30.15,30.03,12,3,12,0.00
2013-8-12,91,78,65,67,57,48,88,54,25,30.12,30.00,12,3,12,0.00
2013-8-13,96,77,67,68,60,46,97,63,18,30.12,30.03,13,3,13,0.61
2013-8-14,93,76,63,67,59,44,98,63,20,30.12,30.03,12,2,12,0.00
2013-8-15,87,75,64,61,53,45,88,52,26,30.15,30.09,12,3,12,0.00
2013-8-16,89,75,63,70,63,57,93,69,40,30.15,30.06,48,3,48,0.00
2013-8-17,90,76,67,70,62,48,97,66,25,30.15,30.06,10,3,10,0.34
2013-8-18,92,78,66,68,60,53,88,59,29,30.12,30.06,12,4,12,0.00
2013-8-19,89,77,32,70,64,30,94,70,30,30.24,30.09,12,3,12,0.00
2013-8-20,92,78,69,64,49,31,81,41,12,30.24,30.12,7,2,12,0.00
2013-8-21,88,74,61,62,52,41,89,53,20,30.21,30.06,7,2,10,0.00
2013-8-22,88,75,62,64,60,52,95,65,31,30.12,29.94,10,3,17,0.00
2013-8-23,90,78,68,68,64,57,93,65,33,30.09,29.97,6,2,10,0.00
2013-8-24,87,73,65,68,64,54,98,77,36,30.06,30.00,8,1,13,0.24
2013-8-25,82,70,62,66,58,46,98,71,33,30.03,29.88,8,1,10,0.00
2013-8-26,77,68,62,65,61,54,98,81,46,29.97,29.91,5,1,8,0.00
2013-8-27,83,68,63,66,60,47,96,79,30,30.03,29.94,7,1,12,0.58
2013-8-28,84,71,64,65,60,50,98,72,31,30.09,30.00,6,2,10,0.00
2013-8-29,84,71,62,63,55,37,98,63,19,30.15,30.06,8,1,14,0.00
2013-8-30,90,73,57,59,48,34,98,52,15,30.15,30.06,9,1,15,0.00
2013-8-31,89,73,56,56,46,35,95,48,16,30.18,30.12,8,2,14,0.00
2013-9-1,90,78,57,57,45,37,94,38,18,30.21,30.12,17,4,17,0.00
2013-9-2,88,72,59,56,48,34,87,49,16,30.27,30.18,9,2,9,0.00
2013-9-3,87,71,54,60,46,35,84,47,16,30.27,30.18,10,3,10,0.00
2013-9-4,90,74,59,66,52,38,88,54,17,30.24,30.09,13,5,13,0.00
2013-9-5,91,75,60,66,53,38,94,55,18,30.12,29.94,10,3,10,0.00
2013-9-6,88,73,58,66,56,47,87,60,29,29.97,29.91,12,4,12,0.00
2013-9-7,83,70,64,67,63,55,98,80,40,30.06,29.97,13,2,13,0.37
2013-9-8,79,67,59,65,61,55,98,82,49,30.24,30.06,13,2,13,0.12
2013-9-9,81,68,59,64,56,46,98,70,33,30.24,30.18,13,2,13,0.00
2013-9-10,79,66,58,66,59,50,98,80,40,30.21,30.06,10,1,10,0.04
2013-9-11,74,66,62,62,55,40,97,73,32,30.15,30.06,10,2,10,0.17
2013-9-12,78,66,58,60,52,44,93,63,32,30.21,30.12,8,2,8,0.00
2013-9-13,85,70,55,61,54,45,98,64,26,30.24,30.18,9,2,9,0.00
2013-9-14,86,77,71,65,57,48,80,52,29,30.18,29.94,10,4,10,0.00
2013-9-15,71,66,62,65,59,49,98,80,58,30.06,29.97,12,2,12,0.17
2013-9-16,84,67,53,64,56,48,98,73,31,30.06,29.83,13,2,13,0.00
2013-9-17,75,66,60,63,52,44,98,64,35,29.97,29.88,10,2,10,0.00
2013-9-18,85,69,54,61,54,46,98,67,28,29.97,29.88,10,2,10,0.00
2013-9-19,84,69,57,61,52,43,98,62,28,30.00,29.91,10,2,10,0.00
2013-9-20,90,71,57,59,52,40,92,56,19,30.15,30.00,10,2,10,0.00
2013-9-21,86,71,57,63,54,38,98,63,19,30.27,30.15,10,2,10,0.00
2013-9-22,86,68,54,59,50,37,97,61,19,30.27,30.24,12,2,12,0.00
2013-9-23,84,67,51,62,51,44,97,63,28,30.24,30.06,14,3,14,0.00
2013-9-24,87,72,60,65,58,47,98,68,28,30.09,29.97,13,4,13,0.00
2013-9-25,86,72,61,66,62,54,98,73,35,29.97,29.91,12,2,12,0.00
2013-9-26,89,75,63,68,62,56,98,70,34,30.00,29.91,10,2,10,0.00
2013-9-27,89,74,63,68,60,45,98,69,26,29.97,29.88,10,3,10,0.00
2013-9-28,85,73,65,68,62,56,96,72,42,29.88,29.68,15,4,15,0.00
2013-9-29,85,71,62,64,56,49,98,64,30,29.80,29.62,12,3,12,0.25
2013-9-30,86,69,58,64,56,46,98,70,28,29.83,29.68,9,2,9,0.00
2013-10-1,90,72,58,68,60,52,98,71,29,29.83,29.74,10,2,10,0.00
2013-10-2,82,71,62,70,64,55,98,81,42,29.97,29.83,10,2,10,0.00
2013-10-3,79,72,70,70,68,62,98,89,58,30.12,29.97,10,5,10,0.00
2013-10-4,71,69,64,70,67,64,98,95,88,30.12,29.94,12,3,12,0.41
2013-10-5,81,68,58,69,57,45,98,74,30,30.21,30.03,12,2,12,0.13
2013-10-6,85,66,58,65,55,38,98,74,20,30.21,30.12,12,2,12,0.04
2013-10-7,78,63,58,60,56,23,96,81,24,30.21,30.12,8,1,8,0.00
2013-10-8,78,65,55,58,52,44,98,69,31,30.24,30.15,8,2,8,0.00
2013-10-9,77,65,60,59,52,44,92,64,34,30.21,30.09,8,1,8,0.00
2013-10-10,72,61,54,55,52,41,93,72,38,30.12,29.88,10,2,10,0.13
2013-10-11,58,53,50,50,44,38,93,72,57,30.06,29.94,6,2,6,0.48
2013-10-12,70,58,47,52,46,36,98,69,33,30.09,29.97,18,4,18,0.00
2013-10-13,76,60,46,56,48,39,98,69,27,30.15,30.06,12,2,12,0.00
2013-10-14,81,62,50,59,52,26,98,78,23,30.12,30.03,10,1,10,0.00
2013-10-15,75,65,58,61,58,52,98,80,47,30.09,29.91,8,2,8,0.00
2013-10-16,87,68,57,61,54,42,98,68,22,30.09,29.97,9,2,9,0.00
2013-10-17,82,67,57,60,56,51,98,73,37,30.12,30.03,8,2,8,0.00
2013-10-18,83,65,56,62,57,49,98,79,35,30.06,29.88,12,2,12,0.00
2013-10-19,79,67,58,65,59,53,98,79,41,30.06,29.94,13,3,13,0.00
2013-10-20,82,69,61,66,60,49,98,76,33,30.09,30.00,13,4,13,0.00
2013-10-21,80,68,57,64,57,49,98,74,38,30.09,29.97,15,5,15,0.00
2013-10-22,80,68,58,64,59,47,98,75,33,30.00,29.80,17,6,17,0.00
2013-10-23,85,70,59,63,54,36,89,64,19,30.03,29.85,17,6,17,0.00
2013-10-24,81,66,55,63,52,42,91,66,27,30.06,29.94,17,4,17,0.00
2013-10-25,80,68,59,65,59,51,98,76,38,30.09,30.00,13,4,13,0.00
2013-10-26,76,66,56,66,61,56,98,86,55,30.12,30.06,9,2,9,0.00
2013-10-27,83,68,59,63,56,46,98,71,29,30.18,30.06,14,3,14,0.00
2013-10-28,88,69,56,57,44,34,92,48,15,30.09,29.88,13,5,13,0.00
2013-10-29,63,58,54,53,40,30,95,56,34,30.12,29.97,12,2,12,0.00
2013-10-30,70,55,41,40,30,16,88,45,14,30.15,30.03,13,2,13,0.00
2013-10-31,72,58,48,39,30,17,71,40,14,30.21,30.12,10,2,10,0.00
2013-11-1,72,56,41,42,32,28,75,43,22,30.18,30.03,10,3,10,0.00
2013-11-2,81,58,46,49,41,31,86,59,19,30.03,29.91,8,1,8,0.00
2013-11-3,72,56,47,51,44,35,98,67,34,30.03,29.91,10,2,10,0.00
2013-11-4,65,56,47,52,46,37,98,72,36,29.97,29.59,12,4,12,0.00
2013-11-5,74,57,45,49,44,35,98,67,27,29.85,29.65,8,2,8,0.00
2013-11-6,83,63,50,56,48,43,97,65,25,30.06,29.85,8,2,8,0.00
2013-11-7,78,61,49,57,51,45,98,75,33,30.06,29.97,9,2,9,0.00
2013-11-8,77,61,51,60,52,42,98,78,32,30.03,29.88,10,2,10,0.00
2013-11-9,68,58,47,46,40,32,73,54,29,30.12,30.00,14,3,14,0.04
2013-11-10,70,54,44,46,38,30,82,58,24,30.09,29.97,15,2,15,0.00
2013-11-11,72,60,50,39,22,13,55,26,13,30.12,29.94,26,8,26,0.00
2013-11-12,74,59,47,45,29,6,66,34,16,30.09,30.03,22,5,22,0.00
2013-11-13,72,60,52,47,42,38,80,55,30,30.15,30.06,12,2,12,0.00
2013-11-14,69,55,42,47,35,16,93,54,18,30.18,30.06,17,2,17,0.00
2013-11-15,61,48,36,29,22,18,59,38,21,30.12,29.94,21,4,21,0.00
2013-11-16,56,51,44,49,34,24,98,55,37,30.12,30.03,16,5,16,0.37
2013-11-17,57,52,48,56,51,48,98,95,80,30.06,29.77,20,3,20,2.69
2013-11-18,55,51,50,54,49,46,98,93,81,29.80,29.47,14,5,14,2.05
2013-11-19,62,52,45,48,39,27,94,63,35,29.77,29.47,22,5,22,0.20
2013-11-20,60,45,33,33,21,10,92,44,16,29.88,29.77,14,3,14,0.00
2013-11-21,60,46,36,36,26,12,94,50,27,29.83,29.50,20,4,20,0.00
2013-11-22,60,44,34,37,24,13,98,52,19,29.74,29.47,13,3,13,0.00
2013-11-23,54,40,31,32,28,21,94,64,30,29.77,29.65,10,2,10,0.00
2013-11-24,61,47,40,30,26,22,61,45,26,29.97,29.77,15,4,15,0.00
2013-11-25,61,45,33,33,26,15,95,53,25,30.15,29.97,13,3,13,0.00
2013-11-26,54,42,32,27,18,13,76,42,20,30.24,30.12,15,4,15,0.00
2013-11-27,48,35,27,27,20,12,93,59,27,30.39,30.15,21,3,21,0.00
2013-11-28,56,36,25,32,24,16,98,69,23,30.39,30.24,9,1,9,0.00
2013-11-29,57,36,24,31,24,18,98,69,24,30.39,30.21,6,1,6,0.00
2013-11-30,48,39,29,37,27,20,96,65,38,30.21,29.88,18,3,18,0.00
2013-12-1,57,46,30,27,22,19,86,42,25,30.03,29.97,17,5,17,0.00
2013-12-2,47,39,28,38,29,24,94,72,41,30.21,30.00,5,0,5,0.00
2013-12-3,69,48,35,41,34,25,98,65,22,30.30,30.21,6,1,6,0.00
2013-12-4,69,46,30,36,29,20,98,62,17,30.30,30.24,6,2,6,0.00
2013-12-5,69,48,34,46,31,23,94,58,20,30.30,30.15,6,2,6,0.00
2013-12-6,65,44,32,40,33,24,98,71,24,30.30,30.18,9,1,9,0.00
2013-12-7,69,46,34,37,32,25,98,66,22,30.27,30.15,8,2,8,0.00
2013-12-8,63,43,31,40,33,25,98,75,26,30.42,30.27,6,1,6,0.00
2013-12-9,62,42,31,45,37,31,98,84,42,30.42,30.33,6,1,6,0.00
2013-12-10,53,46,38,46,42,36,98,90,68,30.53,30.42,6,1,6,0.00
2013-12-11,60,47,35,44,38,34,98,77,38,30.50,30.39,14,3,14,0.00
2013-12-12,65,44,32,42,37,32,98,81,34,30.42,30.30,6,1,6,0.00
2013-12-13,62,43,32,44,37,32,98,83,38,30.33,30.18,8,1,8,0.00
2013-12-14,68,48,37,42,38,31,98,75,26,30.44,30.33,7,2,7,0.00
2013-12-15,63,46,36,40,37,32,98,76,36,30.53,30.39,7,2,7,0.00
2013-12-16,63,46,34,45,40,33,98,82,41,30.53,30.42,8,2,8,0.00
2013-12-17,60,50,41,53,47,40,98,88,63,30.44,30.27,15,3,15,0.00
2013-12-18,64,53,41,51,44,36,98,75,38,30.30,30.06,17,4,17,0.00
2013-12-19,56,52,50,51,46,38,98,79,52,30.06,29.83,17,5,17,0.24
2013-12-20,62,53,48,50,27,11,98,43,17,30.44,29.85,19,8,19,0.12
2013-12-21,61,49,39,37,29,18,73,48,25,30.50,30.39,15,3,15,0.00
2013-12-22,65,50,38,41,30,24,86,50,27,30.42,30.27,15,5,15,0.00
2013-12-23,61,46,34,40,34,27,98,67,34,30.33,30.03,20,4,20,0.00
2013-12-24,58,54,50,46,43,38,79,66,57,30.03,29.59,25,11,25,0.00
2013-12-25,62,57,47,48,39,32,72,53,34,29.59,29.24,23,9,23,0.00
2013-12-26,65,47,37,40,31,22,98,59,20,29.85,29.29,12,2,12,0.00
2013-12-27,62,46,33,47,33,27,93,65,27,29.91,29.74,8,2,8,0.00
2013-12-28,67,53,44,48,40,34,93,63,35,30.00,29.68,14,4,14,0.00
2013-12-29,65,47,36,45,36,31,98,72,31,30.33,30.00,6,1,6,0.00
2013-12-30,59,42,31,41,34,27,98,77,32,30.33,30.21,8,1,8,0.00
2013-12-31,58,42,32,38,33,26,98,74,36,30.21,29.97,9,2,10,0.00
2014-1-1,60,47,32,41,34,30,98,66,35,30.03,29.83,14,4,14,0.00
2014-1-2,65,57,50,50,40,34,95,56,36,29.94,29.74,20,6,20,0.00